997  
ASUS44 KLZK 232105  
RWRLZK  
 
WEATHER ROUNDUP FOR ARKANSAS  
NATIONAL WEATHER SERVICE LITTLE ROCK AR  
300 PM CST SUN FEB 23 2020  
 
NOTE: "FAIR" INDICATES FEW OR NO CLOUDS BELOW 12,000 FEET WITH NO  
SIGNIFICANT WEATHER AND/OR S TO VISIBILITY
.  
 
ARZ001-003-010-029-232200-  
NORTHWEST ARKANSAS  
 
CITY SKY/WX TMP DP RH WIND PRES REMARKS
 
FAYETTEVILLE LGT RAIN 49 45 86 S7 29.99F  
FORT SMITH CLOUDY 49 48 97 E8 30.00F  
HARRISON CLOUDY 46 43 89 SE8 30.01F  
BENTONVILLE CLOUDY 48 45 89 S8 30.00F  
ROGERS LGT RAIN 49 44 83 SE6 29.99F  
SILOAM SPGS LGT RAIN 48 46 93 S7 29.98F  
HIGHFILL LGT RAIN 48 44 86 S7 29.98F  
SPRINGDALE CLOUDY 48 48 100 SE8 29.99F  

 
 
ARZ004-005-016-232200-  
NORTH CENTRAL ARKANSAS  
 
CITY SKY/WX TMP DP RH WIND PRES REMARKS
 
BATESVILLE LGT RAIN N/A N/A N/A S6 30.09F  
FLIPPIN LGT RAIN 49 44 83 S6 30.04F  
MTN HOME LGT RAIN 48 42 80 S7 30.03F  

 
 
ARZ040-041-232200-  
WEST CENTRAL ARKANSAS  
 
CITY SKY/WX TMP DP RH WIND PRES REMARKS
 
MENA CLOUDY 50 48 93 CALM 30.02F  
MOUNT IDA LGT RAIN 48 46 93 CALM 30.02F  

 
 
ARZ009-017-025-026-028-232200-  
NORTHEAST ARKANSAS  
 
CITY SKY/WX TMP DP RH WIND PRES REMARKS
 
JONESBORO CLOUDY 49 42 77 SW15 30.10F  
NEWPORT LGT RAIN 48 45 89 S12 30.10F  
WALNUT RIDGE LGT RAIN 49 42 77 S12 30.09F  
BLYTHEVILLE CLOUDY 51 38 60 S13 30.12F  

 
 
ARZ022-023-033-042-044-232200-  
CENTRAL ARKANSAS  
 
CITY SKY/WX TMP DP RH WIND PRES REMARKS
 
LITTLE ROCK LGT RAIN 46 44 93 SE7 30.10F FOG  
N LITTLE ROCK N/A 45 43 94 S3 30.11F  
BENTON CLOUDY 48 46 93 SE6 30.07F  
JACKSONVILLE CLOUDY 46 46 100 MISG 30.08F  
CONWAY CLOUDY 48 46 93 SE5 30.07F FOG  
SEARCY LGT RAIN 47 47 100 S7 30.11F  
HOT SPRINGS CLOUDY 48 43 82 E5 30.07F  
RUSSELLVILLE LGT RAIN 47 44 90 E5 30.04F FOG  
CLINTON LGT RAIN 46 45 93 CALM 30.07F  

 
 
ARZ036-232200-  
EAST ARKANSAS  
 
CITY SKY/WX TMP DP RH WIND PRES REMARKS
 
WEST MEMPHIS LGT RAIN 48 44 86 S7 30.13F  

 
 
ARZ050-053-066-070-073-232200-  
SOUTHWEST ARKANSAS  
 
CITY SKY/WX TMP DP RH WIND PRES REMARKS
 
ARKADELPHIA CLOUDY 52 48 86 CALM 30.08F  
CAMDEN LGT RAIN 54 46 76 S6 30.08F  
TEXARKANA LGT RAIN 52 51 97 S6 30.05S FOG  
EL DORADO LGT RAIN 56 49 77 S7 30.09F  
DE QUEEN LGT RAIN 51 48 89 E5 30.02F FOG  

 
 
ARZ056-057-069-232200-  
SOUTHEAST ARKANSAS  
 
CITY SKY/WX TMP DP RH WIND PRES REMARKS
 
PINE BLUFF CLOUDY 51 42 71 E6 30.10F  
STUTTGART CLOUDY 48 44 86 SE6 30.12F  
MONTICELLO CLOUDY 54 43 66 SE6 30.09F  
 

 
 
 
 
CLICK HERE TO GO TO PREVIOUS BULLETINS.

The Nexlab AR Page Main Text Page